Location: Banff
(51.1667°N, 115.5667°W)
Time: 04:02:04
(UTC+00:00)

S-56A Canister/Altair - Pass Details

Date: 13 May 2021
Orbit: 632 x 2500 km, 38.9° (Epoch: 16 June)

Event Time Altitude Azimuth Distance (km) Brightness Sun altitude
Rises 05:28:11 0° 277° (W) 5,996 12.7 -14.7°
Reaches altitude 10° 05:33:30 10° 265° (W) 4,767 11.9 -15.2°
Maximum altitude 05:42:16 22° 223° (SW) 3,361 10.6 -15.9°
Enters shadow 05:47:51 14° 185° (S) 3,503 10.4 -16.3°
